SCP
0 0 0 0 0 0 0 0 0 0 0 0 0 0 0 0 0 0 0 0 0 0 0 0 0 0 0 0 0 0 0 0 0 0 0 0 0 0 0 0 0 0 0
0 0 0 0 0 0 0 0 0 0 0 0 0 0 0 0 0 0 0 0 0 0 0 0 0 0 0 0 0 0 0 0 0 0 0 0 0 0 0 0 0 0 0
0 0 0 0 0 0 0 0 0 0 0 0 0 0 0 0 0 0 0 0 0 0 0 0 0 0 0 0 0 0 0 0 0 0 0 0 0 0 0 0 0 0 0
1 0 0 0 0 0 0 0 0 0 0 0 0 0 0 0 0 0 0 0 0 0 0 0 0 0 0 0 0 0 0 0 0 0 0 0 0 0 0 0 0 0 0
1 1 1 1 0 0 0 0 0 0 0 0 0 0 0 0 0 0 0 0 0 0 0 0 0 0 0 0 0 0 0 0 0 0 0 0 0 0 0 0 0 0 0
1 1 1 1 1 1 0 0 0 0 0 0 0 0 0 0 0 0 0 0 0 0 0 0 0 0 0 0 0 0 0 0 0 0 0 0 0 0 0 0 0 0 0
1 1 1 1 1 1 1 0 0 0 0 0 0 0 0 0 0 0 0 0 0 0 0 0 0 0 0 0 0 0 0 0 0 0 0 0 0 0 0 0 0 0 0
1 1 1 1 1 1 1 1 1 1 0 0 0 0 0 0 0 0 0 0 0 0 0 0 0 0 0 0 0 0 0 0 0 0 0 0 0 0 0 0 0 0 0
1 1 1 1 1 1 1 1 1 1 1 1 1 0 0 0 0 0 0 0 0 0 0 0 0 0 0 0 0 0 0 0 0 0 0 0 0 0 0 0 0 0 0
1 1 1 1 1 1 1 1 1 1 1 1 1 1 0 0 0 0 0 0 0 0 0 0 0 0 0 0 0 0 0 0 0 0 0 0 0 0 0 0 0 0 0
1 1 1 1 1 1 1 1 1 1 1 1 0 0 0 0 0 0 0 0 0 0 0 0 0 0 0 0 0 0 0 0 0 0 0 0 0 0 0 0 0 0 0
1 1 1 1 1 1 1 1 1 0 0 0 0 0 0 0 0 0 0 0 0 0 0 0 0 0 0 0 0 0 0 0 0 0 0 0 0 0 0 0 0 0 0
1 1 1 1 1 1 1 1 1 0 0 0 0 0 0 0 0 0 0 0 0 0 0 0 0 0 0 0 0 0 0 0 0 0 0 0 0 0 0 0 0 0 0
1 1 0 0 1 1 1 0 0 0 0 0 0 0 0 0 0 0 0 0 0 0 0 0 0 0 0 0 0 0 0 0 0 0 0 0 0 0 0 0 0 0 0
1 1 0 0 0 0 0 0 0 0 0 0 0 0 0 0 0 0 0 0 0 0 0 0 0 0 0 0 0 0 0 0 0 0 0 0 0 0 0 0 0 0 0
1 1 0 0 0 0 0 0 0 0 0 0 0 0 0 0 0 0 0 0 0 0 0 0 0 0 0 0 0 0 0 0 0 0 0 0 0 0 0 0 0 0 0
1 1 1 0 0 0 0 0 0 0 0 0 0 0 0 0 0 0 0 0 0 0 0 0 0 0 0 0 0 0 0 0 0 0 0 0 0 0 0 0 0 0 0
1 1 1 1 0 0 0 0 0 0 0 0 0 0 0 0 0 0 0 0 0 0 0 0 0 0 0 0 0 0 0 0 0 0 0 0 0 0 0 0 0 0 0
1 1 1 1 0 0 0 0 0 0 0 0 0 0 0 0 0 0 0 0 0 0 0 0 0 0 0 0 0 0 0 0 0 0 0 0 0 0 0 0 0 0 0
1 1 1 1 0 0 0 0 0 0 0 0 0 0 0 0 0 0 0 0 0 0 0 0 0 0 0 0 0 0 0 0 0 0 0 0 0 0 0 0 0 0 0
1 1 1 0 0 0 0 0 0 0 0 0 0 0 0 0 0 0 0 0 0 0 0 0 0 0 0 0 0 0 0 0 0 0 0 0 0 0 0 0 0 0 0
1 1 0 0 0 0 0 0 0 0 0 0 0 0 0 0 0 0 0 0 0 0 0 0 0 0 0 0 0 0 0 0 0 0 0 0 0 0 0 0 0 0 0
1 0 0 0 0 0 0 0 0 0 0 0 0 0 0 0 0 0 0 0 0 0 0 0 0 0 0 0 0 0 0 0 0 0 0 0 0 0 0 0 0 0 0
1 0 0 0 0 0 0 0 0 0 0 0 0 0 0 0 0 0 0 0 0 0 0 0 0 0 0 0 0 0 0 0 0 0 0 0 0 0 0 0 0 0 0
1 0 0 0 0 0 0 0 0 0 0 0 0 0 0 0 0 0 0 0 0 0 0 0 0 0 0 0 0 0 0 0 0 0 0 0 0 0 0 0 0 0 0
1 1 0 0 0 0 0 0 0 0 0 0 0 0 0 0 0 0 0 0 0 0 0 0 0 0 0 0 0 0 0 0 0 0 0 0 0 0 0 0 0 0 0
Wind_Speed
7 9 15 16 16 16 16 16 16 16 16 16 16 16 17 17 16 16 15 15 14 13 13 12 12 13 13 13 14 14 14 15 15 15 15 14 14 14 15 15 14 10 15
12 11 16 16 17 17 16 16 16 16 15 15 15 15 15 15 15 14 14 14 13 12 12 12 12 12 12 12 13 13 13 13 14 14 14 13 13 13 14 14 13 9 14
15 12 15 16 17 17 16 16 16 15 15 14 14 14 14 14 14 13 13 12 12 12 11 11 11 11 11 11 11 11 11 11 11 12 11 6 8 13 14 14 14 13 13
15 12 13 17 17 17 17 16 15 15 14 14 13 13 13 13 12 12 12 11 11 10 10 10 10 9 9 9 9 9 8 8 8 8 5 4 5 12 14 14 13 13 12
13 11 14 18 17 17 17 16 15 15 14 13 13 12 12 12 11 11 11 10 10 9 9 9 9 8 7 7 6 6 5 4 4 4 3 3 4 11 13 13 13 12 11
12 10 14 18 17 17 16 16 15 15 14 13 12 12 11 10 10 10 10 9 9 8 8 8 7 6 5 5 4 3 3 2 2 2 4 4 5 11 13 13 12 12 11
12 9 12 16 16 16 16 16 15 14 13 12 11 11 10 9 9 9 9 9 8 8 7 7 6 5 4 3 2 1 2 2 1 3 4 4 6 12 13 12 12 11 10
13 10 10 15 16 15 15 15 14 13 12 11 10 10 9 8 7 7 8 8 7 7 6 6 5 4 3 2 0 1 2 3 2 3 4 4 8 12 13 12 11 11 10
12 10 8 9 11 13 14 13 13 12 11 10 10 9 8 8 7 7 6 7 7 6 6 5 5 4 3 2 2 2 2 3 2 2 4 3 8 11 13 12 12 11 10
10 9 8 7 7 7 8 12 12 11 10 10 9 8 7 7 7 7 6 6 6 6 6 5 5 4 4 4 4 3 2 2 1 1 2 5 10 11 12 12 12 12 11
9 7 7 7 6 6 6 8 9 10 9 8 7 7 6 2 2 3 5 6 7 6 6 5 5 4 4 4 5 4 2 1 1 2 2 6 10 11 12 12 12 12 11
10 7 6 7 7 6 6 5 3 4 4 4 3 3 2 1 1 3 4 7 7 6 6 5 5 5 4 2 3 4 1 2 1 2 3 9 11 12 12 12 12 12 12
9 8 7 7 7 5 4 4 2 2 2 3 3 3 2 1 0 1 1 2 3 4 2 3 3 2 2 2 2 2 2 2 2 2 3 9 10 12 13 12 12 12 12
8 7 6 6 6 5 5 4 3 2 2 2 2 3 2 2 1 1 1 1 1 1 1 1 1 2 3 3 3 2 2 2 2 2 3 8 10 11 12 12 12 12 12
7 6 5 5 6 5 5 3 3 3 3 3 2 2 3 2 2 2 2 2 1 1 1 1 1 2 2 3 2 2 2 3 3 3 3 8 9 10 11 12 12 12 11
6 4 4 5 5 5 4 3 3 3 2 2 2 2 2 2 2 2 2 2 2 2 2 2 1 2 2 2 2 2 2 2 3 3 3 5 8 8 9 10 11 11 11
7 4 4 5 5 5 4 3 3 3 3 2 2 2 2 2 2 2 2 2 2 1 1 1 1 1 1 1 1 1 1 1 2 3 3 2 3 7 8 8 9 9 10
9 6 4 5 5 4 3 3 2 2 3 2 1 1 1 1 1 1 2 2 2 1 1 1 1 0 1 0 1 1 1 1 2 2 2 2 2 3 5 7 8 8 9
8 8 5 5 5 4 3 3 3 3 2 2 1 1 1 1 1 1 1 1 2 2 1 2 1 1 1 1 1 1 1 1 2 2 2 2 2 2 1 3 5 6 6
6 6 6 5 4 4 3 3 3 3 2 1 1 1 1 1 1 1 1 1 2 1 1 1 1 1 1 1 0 1 1 2 1 1 2 1 1 1 1 0 0 1 1
6 5 5 5 3 2 2 2 2 2 1 1 1 1 2 1 1 1 1 1 1 1 1 2 1 1 1 1 1 1 2 1 1 1 0 1 1 2 2 1 1 1 1
6 5 5 4 3 3 2 1 1 2 1 1 1 2 2 1 1 1 1 1 0 0 0 0 0 0 1 1 1 1 1 2 2 2 1 1 2 2 2 2 2 2 1
6 5 5 4 4 3 3 2 2 3 2 2 2 1 1 1 1 1 1 1 0 1 0 0 1 1 1 1 1 2 2 2 1 2 2 2 2 2 1 2 2 2 2
6 5 5 4 4 4 4 4 4 3 2 0 0 1 2 2 1 1 1 0 1 0 1 0 0 1 1 1 1 1 2 2 2 1 1 2 2 2 2 2 2 2 2
7 5 5 5 4 4 4 4 4 3 1 1 1 2 2 2 2 2 2 0 0 0 0 0 0 1 1 1 1 1 1 1 1 2 1 0 2 2 2 1 1 1 2
7 6 5 5 5 4 4 4 4 4 3 3 2 2 2 2 2 3 2 1 1 0 0 0 0 0 0 0 1 1 1 1 1 2 2 1 0 1 1 2 1 1 2
Wind_Direction
143 148 142 134 127 122 117 112 108 105 102 99 98 97 98 99 100 103 105 107 107 108 108 106 103 102 103 104 106 108 110 112 114 114 114 113 113 115 115 112 107 105 107
144 146 140 135 131 126 122 118 114 111 108 104 102 100 100 101 101 103 105 107 108 109 109 108 106 106 106 107 109 110 113 115 118 118 115 112 111 115 118 115 112 114 112
137 141 139 136 134 131 126 123 120 118 115 111 107 105 105 104 104 105 107 108 109 111 111 111 110 109 109 109 110 112 114 117 118 116 111 105 108 113 116 117 116 115 115
135 137 140 138 136 134 131 129 127 125 122 118 114 112 111 110 109 109 111 111 111 112 114 114 113 112 112 112 112 112 113 118 121 119 120 127 123 122 121 121 122 121 120
129 133 140 139 138 137 136 135 133 131 129 125 122 120 118 116 116 116 116 116 115 116 117 117 117 116 115 112 110 109 109 114 120 121 131 136 128 132 129 128 128 127 125
126 131 140 140 139 139 139 139 138 137 136 133 130 127 125 124 123 125 124 124 124 124 123 123 123 122 120 114 106 97 87 73 97 116 135 145 144 143 138 137 135 134 134
126 129 137 137 138 140 142 142 142 142 141 139 137 135 133 132 132 134 135 135 135 135 133 132 132 130 128 123 103 58 28 26 97 133 149 160 159 151 146 144 143 143 143
126 124 130 136 139 141 143 143 144 145 144 143 141 140 139 139 140 142 144 144 144 145 146 145 147 150 154 163 214 334 354 5 71 111 145 164 168 157 152 151 150 151 152
122 123 124 132 135 138 140 142 144 145 145 145 145 145 147 150 153 156 155 154 154 157 162 164 169 181 197 221 250 289 335 25 74 120 153 167 174 164 161 159 159 159 159
120 123 125 123 126 132 137 143 145 146 145 147 149 151 156 165 172 174 171 171 173 177 181 185 191 202 221 240 255 275 309 17 86 157 164 183 184 176 170 169 169 168 166
124 128 130 128 129 133 137 146 148 148 151 153 157 161 160 166 182 188 193 190 194 198 200 202 209 218 232 253 265 270 287 179 152 191 185 191 189 184 178 177 177 177 175
140 140 137 137 140 144 149 135 140 152 149 147 148 154 146 151 198 210 214 206 205 210 213 215 223 235 242 263 279 277 231 192 189 206 205 199 195 192 189 186 185 185 183
140 139 142 144 146 146 134 139 143 143 146 145 151 156 149 143 159 226 218 226 219 213 220 233 234 238 239 238 244 244 217 199 196 206 211 202 200 201 196 192 192 192 190
130 134 141 143 143 138 138 149 149 149 152 151 167 171 162 152 148 147 195 229 216 208 219 229 224 236 243 245 236 230 217 208 205 204 212 207 207 207 201 197 200 199 196
128 133 141 145 142 139 138 152 148 147 153 156 157 173 165 162 171 175 191 187 177 207 211 234 235 245 251 264 250 229 221 219 211 203 217 215 213 214 210 205 203 200 199
127 134 138 139 135 135 138 145 145 150 144 135 149 171 158 162 177 176 181 185 179 204 212 209 219 241 252 257 255 224 214 203 211 210 216 217 212 210 209 207 205 204 204
130 138 138 134 125 132 136 142 137 141 139 142 152 145 137 159 180 170 176 189 184 187 205 213 233 234 250 265 291 262 214 197 201 212 212 212 214 217 214 212 210 209 210
135 136 136 128 121 122 131 131 130 127 131 131 126 116 98 148 157 142 162 193 171 159 184 205 213 238 280 291 310 298 275 241 224 214 202 203 208 217 217 217 215 215 215
140 137 129 117 118 122 126 123 116 115 115 117 112 93 95 123 161 148 159 186 158 163 184 206 194 203 226 248 266 282 280 261 240 220 207 198 200 204 207 220 217 219 222
125 119 117 111 111 121 118 106 96 94 97 106 107 103 90 79 82 109 139 170 151 155 188 208 203 213 209 207 292 314 285 271 265 221 212 190 159 134 126 113 183 247 227
108 108 111 109 112 115 102 104 110 114 106 88 97 95 78 63 57 73 78 50 130 161 189 210 200 213 235 158 80 349 333 325 328 277 191 133 111 109 99 90 74 42 341
136 125 114 111 106 101 104 113 120 116 108 97 46 55 54 49 47 84 86 63 34 98 84 254 196 250 256 172 137 118 336 345 353 4 52 107 99 88 84 77 54 49 36
132 125 118 109 97 91 93 90 76 55 46 41 31 12 5 37 48 43 66 98 98 119 124 225 222 210 235 273 185 166 167 222 307 355 30 62 82 77 79 73 63 42 39
129 117 106 95 85 82 87 92 98 101 90 46 345 350 359 15 31 30 357 77 67 66 88 284 285 245 196 259 282 232 204 178 178 268 0 25 55 61 53 60 58 49 41
127 118 107 97 86 82 84 92 95 89 93 61 49 36 16 354 353 2 5 19 42 359 356 284 280 252 213 217 221 232 237 224 188 178 230 339 37 33 38 54 62 54 39
120 115 108 99 85 79 83 84 93 95 84 76 57 36 12 351 356 11 3 26 15 12 28 334 2 15 301 246 231 213 196 202 201 178 192 189 135 27 29 40 55 56 48